Location: Sawyer Lake
(45.2517°N, 88.7550°W)
Time: 20:51:24
(UTC-05:00)

Daily predictions for brighter satellites

Satellite Brightness Start Highest point End
(mag) Time Altitude Azimuth Time Altitude Azimuth Time Altitude Azimuth
Cosmos 1726 3.7 21:16:48 10° NNE 21:19:49 22° ENE 21:22:49 10° SE
Cosmos 1437 3.2 21:17:22 10° SSE 21:20:28 41° E 21:23:36 10° NNE
Cosmos 1328 4.3 21:17:52 10° SSE 21:21:33 40° E 21:25:18 10° NNE
ATLAS 2AS CENTAUR R/B 4.5 21:20:31 10° SE 21:23:47 13° E 21:27:09 10° ENE
Envisat 3.1 21:21:30 10° SSE 21:26:35 89° ENE 21:31:42 10° NNW
ERS-1 Rocket 3.7 21:22:48 10° S 21:27:43 55° W 21:32:41 10° NNW
Cosmos 2219 3.5 21:24:04 10° S 21:29:34 48° ESE 21:35:04 10° NE
deb Chang Zheng 4 3.7 21:25:44 10° NNE 21:30:05 85° WNW 21:34:26 10° SSW
Cosmos 2237 Rocket 3.7 21:29:24 10° N 21:34:07 26° NE 21:38:48 10° ESE
ATLAS 3B R/B 4.3 21:29:39 10° NNW 21:35:43 28° NNE 21:41:27 10° E
Cosmos 2322 4.0 21:30:44 10° NNW 21:36:25 68° WSW 21:42:04 10° SSE
Cosmos 2322 Rocket 4.2 21:32:14 10° NW 21:36:39 24° WSW 21:41:03 10° SSW
Cosmos 1271 Rocket 4.2 21:33:51 10° NNE 21:36:58 23° ENE 21:40:05 10° SE
SL-23 DEB 4.3 21:31:34 10° WNW 21:37:07 61° SW 21:40:32 11° SE
Cosmos 2112 Rocket 4.1 21:32:16 10° NNW 21:37:32 86° WSW 21:42:48 10° SSE
Cosmos 2151 2.9 21:38:12 10° S 21:42:23 86° ESE 21:46:38 10° N
Meteor 1-4 Rocket 3.9 21:39:17 10° NNE 21:42:34 27° ENE 21:45:29 12° SE
SL-14 R/B 4.1 21:40:28 10° SSE 21:44:04 34° E 21:47:44 10° NNE
Meteor 1-27 4.4 21:39:17 10° N 21:44:56 61° ENE 21:50:29 10° SSE
Nimbus 7 Rocket 4.5 21:39:04 10° NNE 21:44:58 89° WNW 21:50:50 10° SSW
Cosmos 2360 Rocket 2.8 21:40:23 10° NNW 21:45:54 55° WSW 21:51:24 10° S
NOSS 3-1 (C) 3.6 21:41:14 10° SSW 21:46:52 50° ESE 21:53:07 10° NE
Terra 3.3 21:43:37 10° ESE 21:47:21 23° ENE 21:51:06 10° NNE
Cosmos 2298 Rocket 4.4 21:42:43 10° S 21:47:43 43° ESE 21:52:45 10° NNE
SL-16 R/B 4.4 21:43:58 10° NW 21:48:07 21° W 21:52:16 10° SSW
Lacrosse 4 Rocket 4.0 21:46:39 10° NNE 21:48:34 13° NE 21:50:31 10° ENE
Aureole 3 4.3 21:44:13 10° S 21:50:47 84° E 21:55:58 10° N
MetOp-B 4.2 21:45:38 10° SSE 21:50:59 88° WSW 21:56:24 10° NNW
NOAA 11 4.5 21:47:19 10° SSE 21:52:32 57° ENE 21:57:53 10° N
Sich 1 3.6 21:49:00 10° SSE 21:53:10 42° E 21:57:19 10° NNE
CZ-4 SHROUD 3.9 21:51:59 10° S 21:55:02 53° W 21:58:08 10° NNW
USA 245 2.2 21:53:36 15° SSE 21:55:29 57° ENE 21:57:44 10° N
Cosmos 1633 Rocket 3.5 21:52:42 10° SSE 21:56:51 43° E 22:00:59 10° NNE
Cosmos 2058 2.8 21:53:22 10° S 21:57:28 77° E 22:01:35 10° NNE
Cosmos 1151 Rocket 4.3 21:54:58 10° NNW 21:58:58 38° W 22:02:58 10° SSW
Cosmos 1626 4.0 22:01:02 13° ESE 22:02:35 16° E 22:04:59 10° NE
SL-12 R/B (AUX MOTOR) 4.1 22:02:12 10° W 22:03:40 64° NNW 22:05:18 10° ENE
Cosmos 1674 4.4 22:00:10 10° SW 22:03:42 35° WNW 22:07:18 10° N
COSMOS 2455 4.3 21:59:19 10° NNW 22:04:27 28° NE 22:09:33 10° E
CZ-4 R/B 4.0 22:03:38 10° NNE 22:08:31 55° E 22:13:16 10° S
CZ-4B R/B 3.5 22:04:59 10° NNE 22:10:18 79° ESE 22:15:30 10° SSW
SL-08 RB Rocket 3.7 22:06:50 15° SSE 22:10:32 70° ENE 22:15:02 10° N
H-2A R/B 2.7 22:08:02 15° SE 22:12:12 47° ENE 22:17:25 10° N
Cosmos 1805 Rocket 3.7 22:07:53 10° SSW 22:12:20 78° W 22:16:48 10° N
Cosmos 1300 3.0 22:10:36 10° NNW 22:14:25 65° W 22:17:52 12° S
Cosmos 2315 Rocket 4.4 22:08:53 10° NNW 22:15:00 62° W 22:21:05 10° S
Cosmos 2227 Rocket 3.0 22:11:30 14° SSE 22:15:25 30° ESE 22:20:18 10° NE
Meteor 1-11 4.3 22:09:39 10° S 22:15:26 86° E 22:21:11 10° NNE
Tiangong 1 1.9 22:13:25 10° SW 22:16:08 28° SSE 22:17:12 22° SE
YAOGAN 6 3.3 22:12:45 11° S 22:16:12 50° W 22:19:44 10° NNW
SPOT 1/Viking Rocket 3.9 22:19:48 12° S 22:24:35 63° WSW 22:29:43 10° NNW
Cosmos 2333 Rocket 2.4 22:21:28 10° NNW 22:27:12 65° ENE 22:31:18 20° SE
SL-16 R/B 3.5 22:22:43 10° N 22:27:39 29° NE 22:32:01 12° ESE
Cosmos 1707 Rocket 4.3 22:24:43 10° NNW 22:28:55 48° W 22:32:56 11° SSW
Cosmos 1898 Rocket 3.4 22:23:50 10° SSW 22:29:01 84° ESE 22:34:16 10° NNE
IGS 5A 3.9 22:29:10 22° SE 22:31:36 49° ENE 22:35:39 10° N
SeaSat 1 4.3 22:29:55 10° E 22:33:38 22° NE 22:37:22 10° N
Cosmos 858 Rocket 4.4 22:29:11 10° SSW 22:34:24 85° ESE 22:39:38 10° NNE
Cosmos 1666 Rocket 4.0 22:30:34 10° SSW 22:34:54 61° W 22:39:20 10° N
Cosmos 220 Rocket 4.0 22:31:40 13° S 22:35:27 65° ESE 22:39:52 10° NNE
Cosmos 2150 Rocket 4.2 22:31:02 10° SSW 22:36:29 84° WNW 22:42:00 10° NNE
Cosmos 1455 2.5 22:33:17 10° N 22:37:01 51° E 22:38:49 27° SE
Nadezhda 1 Rocket 4.0 22:31:52 10° N 22:37:57 72° E 22:42:17 20° SSE
COSMOS 2428 3.6 22:33:29 10° NW 22:38:49 43° WSW 22:43:18 14° S
SAR-Lupe-2 3.8 22:40:40 29° SE 22:42:16 58° ENE 22:45:49 10° N
Cosmos 2297 Rocket 2.9 22:39:29 21° SSE 22:42:23 35° ESE 22:47:29 10° NE
ARGOS 3.8 22:41:02 13° S 22:45:37 50° W 22:50:52 10° NNW
Cosmos 2219 Rocket 2.3 22:41:24 10° NNW 22:46:59 71° WSW 22:50:35 23° SSE
Cosmos 1470 Rocket 3.4 22:45:42 22° S 22:48:26 76° E 22:52:46 10° NNE
Cosmos 1933 Rocket 3.5 22:46:49 22° S 22:49:39 76° E 22:54:08 10° NNE
NOSS 3-1 (A) 3.5 22:44:50 10° SW 22:50:48 83° NW 22:57:30 10° NE
Cosmos 1745 Rocket 4.0 22:47:12 13° S 22:52:47 87° W 22:59:00 10° N
Cosmos 1869 3.3 22:50:27 10° N 22:54:31 68° E 22:56:15 32° SSE
Cosmos 1726 4.0 22:51:58 10° NNW 22:55:11 27° W 22:58:06 12° SW
DMSP B5D2-2 4.0 22:52:43 10° NNE 22:57:58 73° ESE 23:01:25 22° S
Cosmos 2221 Rocket 4.5 22:56:18 10° N 23:00:34 37° ENE 23:02:24 26° ESE
Cosmos 1709 Rocket 4.3 22:57:42 25° SSE 23:01:05 50° E 23:06:57 10° NNE
NOSS 0 Rocket 4.1 22:55:28 10° NNW 23:01:34 64° WSW 23:05:19 24° S
CZ-4C R/B 4.1 22:59:54 22° SSW 23:01:39 37° W 23:04:55 10° NNW
Cosmos 1980 3.8 23:00:25 10° NNW 23:06:03 70° WSW 23:09:10 27° S
ERBS 2.4 23:05:21 37° SSW 23:06:25 56° SE 23:09:51 10° ENE
Spot 2 4.4 23:07:47 10° NNE 23:12:57 85° ESE 23:15:54 25° SSW
Cosmos 1271 Rocket 4.5 23:09:46 10° NW 23:13:00 26° W 23:15:19 15° SW
ATLAS 2AS CENTAUR R/B 3.0 23:05:48 10° SSW 23:13:12 65° ESE 23:21:11 10° NE
Cosmos 468 4.5 23:10:29 10° NNW 23:15:52 86° ENE 23:18:26 32° SSE
Cosmos 1386 Rocket 4.5 23:12:51 19° SSW 23:17:19 77° W 23:23:22 10° N
Cosmos 1346 4.0 23:17:15 29° SW 23:18:22 43° WNW 23:21:18 10° N
Cosmos 2237 Rocket 2.5 23:12:58 10° NNW 23:18:36 61° WSW 23:21:31 28° S
CZ-4C R/B 4.2 23:15:20 10° NNW 23:21:17 32° NE 23:27:51 10° E
Cosmos 44 Rocket 4.4 23:22:33 27° ESE 23:22:57 27° ESE 23:27:18 10° NE
COS B Rocket 3.7 23:19:58 10° NNE 23:23:41 49° E 23:24:36 40° SE
Terra 2.6 23:22:18 24° SSW 23:24:50 44° W 23:29:24 10° NNW
Cosmos 2082 3.8 23:19:48 14° SSW 23:24:51 82° WNW 23:30:37 10° NNE
Cosmos 2181 Rocket 4.1 23:19:21 10° N 23:25:46 77° E 23:29:09 30° SSE
ATLAS 3B R/B 2.7 23:20:21 10° NW 23:27:29 85° NE 23:31:15 28° SE
Cosmos 1862 Rocket 4.4 23:23:34 10° NNW 23:27:41 42° W 23:29:43 25° SSW
Lacrosse 4 Rocket 1.6 23:23:42 10° NNW 23:28:07 70° ENE 23:29:44 38° SE
Spot 4 4.4 23:26:34 27° SSW 23:28:55 52° W 23:33:41 10° NNW
Meteor 2-3 Rocket 4.5 23:33:21 29° SE 23:35:20 38° E 23:40:33 10° NNE
USA 238 DEB 4.2 23:30:02 10° NNW 23:36:58 56° NE 23:42:04 19° ESE
USA 238 4.3 23:30:08 10° NNW 23:37:03 55° NE 23:42:11 19° ESE
Cosmos 1626 3.5 23:35:44 21° SW 23:37:43 35° WNW 23:41:13 10° N
Cosmos 1900 4.3 23:33:05 10° NW 23:38:05 77° WSW 23:39:48 41° SSE
Cosmos 2251 Rocket 4.4 23:38:20 10° N 23:43:23 41° ENE 23:45:54 25° ESE
Cosmos 1689 Rocket 4.0 23:47:10 23° E 23:47:30 23° ENE 23:50:12 10° NNE
NOSS 2-3 (E) 4.2 23:46:41 41° SSE 23:47:50 48° ESE 23:53:15 10° NE
COSMOS 2455 2.9 23:44:54 10° NW 23:50:54 68° WSW 23:53:21 36° S
H-2A R/B 3.7 23:48:41 16° SW 23:51:49 26° W 23:56:21 10° NW
Cosmos 1269 Rocket 4.3 23:47:19 10° NNW 23:52:33 58° WSW 23:54:28 36° SSW
Cosmos 1933 3.9 23:49:53 10° NNW 23:53:49 49° W 23:54:51 39° SW
